Port Aransas, TX

8:01 PM CST on February 06, 2016 (GMT -0600)
Port Aransas

Weather History for KRAS - October, 2012

Change the Weather History Date:

Monday, October 22, 2012

  Actual Average (KCRP) Record (KCRP)
Temperature  
Mean Temperature 80 °F 73 °F  
Max Temperature 84 °F 83 °F 98 °F (1950)
Min Temperature 77 °F 63 °F 45 °F (1996)
Degree Days  
Heating Degree Days 0 0  
Month to date heating degree days 0  
Since 1 July heating degree days 0  
Cooling Degree Days 16 9  
Month to date cooling degree days 240  
Year to date cooling degree days 3283  
Growing Degree Days 30 (Base 50)    
Moisture  
Dew Point 73 °F    
Average Humidity 79    
Maximum Humidity 94    
Minimum Humidity 66    
Precipitation  
Precipitation 0.07 in 0.12 in 2.20 in (1958)
Month to date precipitation 2.68  
Year to date precipitation 27.00  
Snow  
Snow 0.00 in - - ()
Month to date snowfall  
Since 1 July snowfall  
Since 1 September snowfall  
Snow Depth -    
Sea Level Pressure  
Sea Level Pressure 29.94 in    
Wind  
Wind Speed 13 mph (SSE)    
Max Wind Speed 17 mph    
Max Gust Speed 24 mph    
Visibility 9 miles    
Events Rain    
T = Trace of Precipitation, MM = Missing Value Source: NWS Daily Summary

Daily Weather History Graph

Daily Weather History Graph

Search for Another Location

Airport or City:

Trip Planner

Search our weather history database for the weather conditions in past years. The results will help you decide how hot, cold, wet, or windy it might be!

Date:

Astronomy

Oct. 22, 2012 Rise Set
Actual Time 7:33 AM CDT 6:51 PM CDT
Civil Twilight 7:09 AM CDT 7:15 PM CDT
Nautical Twilight 6:41 AM CDT 7:43 PM CDT
Astronomical Twilight 6:14 AM CDT 8:10 PM CDT
Moon 2:28 PM CDT (10/22) 12:56 AM CDT (10/22)
Length of Visible Light 12h 06m
Length of Day
11h 18m
First Quarter, 56% of the Moon is Illuminated
Oct 22
First Quarter
Oct 29
Full
Nov 6
Last Quarter
Nov 13
New
Nov 20
First Quarter

Hourly Weather History & Observations

Time (CDT) Temp. Heat Index Dew Point Humidity Pressure Visibility Wind Dir Wind Speed Gust Speed Precip Events Conditions
12:15 AM 78.8 °F - 73.4 °F 83% 29.94 in 10.0 mi SSE 13.8 mph 18.4 mph N/A   Clear
12:55 AM 78.8 °F - 75.2 °F 89% 29.93 in 10.0 mi SSE 12.7 mph - N/A   Clear
1:15 AM 78.8 °F - 73.4 °F 83% 29.93 in 10.0 mi SSE 15.0 mph 19.6 mph N/A   Clear
1:35 AM 78.8 °F - 75.2 °F 89% 29.93 in 10.0 mi SSE 15.0 mph 19.6 mph N/A   Clear
1:55 AM 78.8 °F - 75.2 °F 89% 29.93 in 7.0 mi SE 12.7 mph 17.3 mph N/A   Scattered Clouds
2:15 AM 78.8 °F - 73.4 °F 83% 29.93 in 7.0 mi SSE 11.5 mph 17.3 mph N/A   Scattered Clouds
2:35 AM 78.8 °F - 75.2 °F 89% 29.93 in 7.0 mi SSE 11.5 mph - N/A   Scattered Clouds
2:55 AM 78.8 °F - 75.2 °F 89% 29.92 in 10.0 mi SSE 12.7 mph 18.4 mph N/A   Scattered Clouds
3:15 AM 78.8 °F - 73.4 °F 83% 29.92 in 10.0 mi SSE 12.7 mph 20.7 mph N/A   Mostly Cloudy
3:55 AM 78.8 °F - 75.2 °F 89% 29.92 in 7.0 mi SSE 10.4 mph 16.1 mph N/A   Scattered Clouds
4:15 AM 78.8 °F - 75.2 °F 89% 29.91 in 7.0 mi SSE 12.7 mph - N/A   Mostly Cloudy
4:35 AM 78.8 °F - 75.2 °F 89% 29.91 in 10.0 mi SSE 11.5 mph 18.4 mph N/A   Scattered Clouds
4:55 AM 78.8 °F - 75.2 °F 89% 29.91 in 7.0 mi SSE 11.5 mph 17.3 mph N/A   Mostly Cloudy
5:15 AM 77.0 °F - 73.4 °F 89% 29.91 in 7.0 mi SSE 15.0 mph 19.6 mph N/A Rain Light Rain
5:35 AM 77.0 °F - 75.2 °F 94% 29.91 in 7.0 mi South 10.4 mph 17.3 mph 0.01 in Rain Light Rain
5:55 AM 77.0 °F - 75.2 °F 94% 29.92 in 10.0 mi South 10.4 mph - 0.04 in   Overcast
6:15 AM 78.8 °F - 75.2 °F 89% 29.92 in 7.0 mi South 13.8 mph 17.3 mph N/A   Overcast
6:55 AM 77.0 °F - 73.4 °F 89% 29.93 in 7.0 mi SSE 13.8 mph 20.7 mph N/A   Mostly Cloudy
7:15 AM 77.0 °F - 73.4 °F 89% 29.93 in 5.0 mi South 11.5 mph - 0.03 in Rain Rain
7:35 AM 77.0 °F - 75.2 °F 94% 29.93 in 7.0 mi SSE 11.5 mph 16.1 mph 0.03 in   Overcast
7:55 AM 77.0 °F - 73.4 °F 89% 29.93 in 7.0 mi SSE 10.4 mph 16.1 mph 0.03 in   Overcast
8:15 AM 78.8 °F - 73.4 °F 83% 29.94 in 7.0 mi SSE 12.7 mph 18.4 mph N/A   Overcast
8:35 AM 78.8 °F - 73.4 °F 83% 29.95 in 7.0 mi SSE 11.5 mph 19.6 mph N/A   Overcast
8:55 AM 78.8 °F - 73.4 °F 83% 29.95 in 7.0 mi SSE 12.7 mph 20.7 mph N/A   Scattered Clouds
9:15 AM 80.6 °F 85.4 °F 73.4 °F 79% 29.96 in 7.0 mi SSE 15.0 mph 20.7 mph N/A   Clear
9:35 AM 80.6 °F 85.4 °F 73.4 °F 79% 29.97 in 7.0 mi SSE 13.8 mph 20.7 mph N/A   Clear
9:55 AM 80.6 °F 85.4 °F 73.4 °F 79% 29.97 in 10.0 mi SSE 15.0 mph 20.7 mph N/A   Scattered Clouds
10:15 AM 80.6 °F 85.4 °F 73.4 °F 79% 29.98 in 10.0 mi SSE 13.8 mph 19.6 mph N/A   Scattered Clouds
10:35 AM 80.6 °F 85.4 °F 73.4 °F 79% 29.98 in 10.0 mi SSE 13.8 mph 19.6 mph N/A   Mostly Cloudy
10:55 AM 82.4 °F 88.2 °F 73.4 °F 74% 29.99 in 10.0 mi SSE 16.1 mph 19.6 mph N/A   Mostly Cloudy
11:15 AM 82.4 °F 88.2 °F 73.4 °F 74% 29.99 in 10.0 mi SSE 15.0 mph 20.7 mph N/A   Scattered Clouds
11:35 AM 82.4 °F 87.2 °F 71.6 °F 70% 29.99 in 10.0 mi SSE 13.8 mph 24.2 mph N/A   Clear
11:55 AM 82.4 °F 87.2 °F 71.6 °F 70% 29.99 in 10.0 mi SSE 13.8 mph - N/A   Clear
12:15 PM 82.4 °F 88.2 °F 73.4 °F 74% 29.99 in 10.0 mi SSE 15.0 mph 19.6 mph N/A   Clear
12:35 PM 82.4 °F 88.2 °F 73.4 °F 74% 29.99 in 10.0 mi SSE 15.0 mph 20.7 mph N/A   Clear
12:55 PM 84.2 °F 90.9 °F 73.4 °F 70% 29.98 in 10.0 mi SSE 13.8 mph 18.4 mph N/A   Clear
1:15 PM 84.2 °F 89.6 °F 71.6 °F 66% 29.97 in 10.0 mi SSE 15.0 mph 20.7 mph N/A   Clear
1:35 PM 84.2 °F 89.6 °F 71.6 °F 66% 29.96 in 10.0 mi SSE 15.0 mph 21.9 mph N/A   Clear
1:55 PM 84.2 °F 89.6 °F 71.6 °F 66% 29.95 in 10.0 mi SSE 13.8 mph 20.7 mph N/A   Clear
2:15 PM 84.2 °F 90.9 °F 73.4 °F 70% 29.94 in 10.0 mi SSE 12.7 mph 18.4 mph N/A   Clear
2:35 PM 82.4 °F 87.2 °F 71.6 °F 70% 29.94 in 10.0 mi SE 15.0 mph 19.6 mph N/A   Clear
2:55 PM 82.4 °F 87.2 °F 71.6 °F 70% 29.93 in 10.0 mi SE 17.3 mph 21.9 mph N/A   Clear
3:15 PM 82.4 °F 87.2 °F 71.6 °F 70% 29.93 in 10.0 mi SE 13.8 mph 21.9 mph N/A   Clear
3:35 PM 82.4 °F 87.2 °F 71.6 °F 70% 29.93 in 10.0 mi SE 15.0 mph - N/A   Clear
3:55 PM 82.4 °F 87.2 °F 71.6 °F 70% 29.93 in 10.0 mi SE 15.0 mph - N/A   Clear
4:15 PM 82.4 °F 87.2 °F 71.6 °F 70% 29.93 in 10.0 mi SE 11.5 mph 18.4 mph N/A   Clear
4:35 PM 82.4 °F 87.2 °F 71.6 °F 70% 29.93 in 10.0 mi SE 12.7 mph - N/A   Clear
4:55 PM 82.4 °F 87.2 °F 71.6 °F 70% 29.93 in 10.0 mi SE 10.4 mph - N/A   Clear
5:15 PM 80.6 °F 84.6 °F 71.6 °F 74% 29.93 in 10.0 mi SE 13.8 mph 20.7 mph N/A   Clear
5:35 PM 80.6 °F 84.6 °F 71.6 °F 74% 29.93 in 10.0 mi SE 11.5 mph 17.3 mph N/A   Clear
5:55 PM 80.6 °F 84.6 °F 71.6 °F 74% 29.93 in 10.0 mi SE 12.7 mph 19.6 mph N/A   Clear
6:15 PM 80.6 °F 84.6 °F 71.6 °F 74% 29.93 in 10.0 mi SE 11.5 mph 18.4 mph N/A   Clear
6:35 PM 80.6 °F 84.6 °F 71.6 °F 74% 29.93 in 10.0 mi SE 12.7 mph 17.3 mph N/A   Clear
6:55 PM 78.8 °F - 71.6 °F 78% 29.94 in 10.0 mi SE 12.7 mph 20.7 mph N/A   Clear
7:15 PM 78.8 °F - 71.6 °F 78% 29.94 in 10.0 mi SE 11.5 mph - N/A   Clear
7:35 PM 78.8 °F - 71.6 °F 78% 29.94 in 10.0 mi SE 12.7 mph 18.4 mph N/A   Clear
7:55 PM 78.8 °F - 71.6 °F 78% 29.94 in 10.0 mi SE 12.7 mph 17.3 mph N/A   Clear
8:15 PM 78.8 °F - 71.6 °F 78% 29.95 in 10.0 mi SE 15.0 mph 19.6 mph N/A   Clear
8:55 PM 78.8 °F - 69.8 °F 74% 29.95 in 10.0 mi SE 15.0 mph 20.7 mph N/A   Clear
9:15 PM 78.8 °F - 71.6 °F 78% 29.96 in 10.0 mi SE 13.8 mph - N/A   Clear
9:35 PM 78.8 °F - 71.6 °F 78% 29.95 in 10.0 mi SE 13.8 mph 19.6 mph N/A   Clear
9:55 PM 78.8 °F - 69.8 °F 74% 29.95 in 10.0 mi SE 12.7 mph 21.9 mph N/A   Clear
10:15 PM 78.8 °F - 69.8 °F 74% 29.96 in 10.0 mi SE 15.0 mph 20.7 mph N/A   Clear
10:35 PM 78.8 °F - 69.8 °F 74% 29.96 in 10.0 mi SE 17.3 mph 23.0 mph N/A   Clear
10:55 PM 78.8 °F - 69.8 °F 74% 29.96 in 10.0 mi SE 15.0 mph 18.4 mph N/A   Mostly Cloudy
11:15 PM 78.8 °F - 71.6 °F 78% 29.96 in 10.0 mi SE 15.0 mph 20.7 mph N/A   Mostly Cloudy
11:35 PM 78.8 °F - 69.8 °F 74% 29.96 in 10.0 mi SE 16.1 mph 21.9 mph N/A   Mostly Cloudy